Home   Weather   Nassau   Past weeks

Flag for Bahamas Past Weather in Nassau, Bahamas — Yesterday and Last 2 Weeks

Now
77 °F

Passing clouds.


Feels Like: 78 °F
Forecast: 75 / 82 °F
Wind: 3 mph from Southeast

Location: Nassau Airport

Current Time: Dec 5, 2016 at 8:05:19 pm

Latest Report: Dec 5, 2016 at 7:00 pm


Visibility: N/A

Pressure: 30.00 "Hg

Humidity: 83%

Dew Point: 72 °F

Location of NassauLocation

Past Weather in Nassau — Graph

°F

Nassau Temperature Yesterday

Maximum temperature yesterday: 81 °F (at 2:00 pm)
Minimum temperature yesterday: 73 °F (at 2:00 am)
Average temperature yesterday: 76 °F

High & Low Weather Summary for the Past Weeks

 TemperatureHumidityPressure
High84 °F (Dec 1, 1:00 pm)100% (Nov 26, 7:00 am)30.22 "Hg (Nov 26, 7:00 am)
Low63 °F (Nov 22, 5:00 am)54% (Nov 21, 1:00 pm)29.95 "Hg (Nov 27, 3:00 pm)
Average76 °F75%30.05 "Hg
* Reported Nov 20 7:00 pm — Dec 5 7:00 pm, Nassau, Weather by CustomWeather, © 2016

Note: Actual official high and low records may vary slightly from our data, if they occured in-between our weather recording intervals... More about our weather records

Advertising

Nassau Weather History for the Previous 24 Hours

Scroll right to see more
 ConditionsComfort  
Time TempWeatherWind HumidityBarometerVisibility
7:00 pm
Mon, Dec 5
77 °FPassing clouds.3 mph83%30.00 "HgN/A
6:00 pm75 °FPassing clouds.3 mph83%29.99 "HgN/A
5:00 pm77 °FScattered clouds.6 mph79%29.99 "HgN/A
4:00 pm79 °FScattered clouds.5 mph79%29.99 "HgN/A
3:00 pm79 °FBroken clouds.8 mph74%29.99 "HgN/A
2:00 pm79 °FBroken clouds.7 mph74%30.00 "HgN/A
1:00 pm81 °FBroken clouds.10 mph74%30.01 "HgN/A
12:00 pm79 °FBroken clouds.12 mph74%30.05 "HgN/A
11:00 am79 °FBroken clouds.10 mph70%30.07 "HgN/A
10:00 am73 °FBroken clouds.9 mph89%30.08 "HgN/A
9:00 am77 °FScattered clouds.9 mph83%30.07 "HgN/A
8:00 am75 °FScattered clouds.9 mph89%30.06 "HgN/A
7:00 am73 °FScattered clouds.5 mph94%30.06 "HgN/A
5:00 am73 °FPassing clouds.1 mph83%30.04 "HgN/A
4:00 am75 °FPassing clouds.3 mph83%30.03 "HgN/A
3:00 am73 °FPassing clouds.3 mph83%30.03 "HgN/A
2:00 am73 °FPassing clouds.5 mph83%30.04 "HgN/A
1:00 am75 °FPassing clouds.6 mph83%30.06 "HgN/A
12:00 am75 °FPassing clouds.6 mph78%30.07 "HgN/A
11:00 pm
Sun, Dec 4
75 °FPassing clouds.7 mph78%30.09 "HgN/A
10:00 pm77 °FPassing clouds.12 mph79%30.09 "HgN/A
9:00 pm75 °FPassing clouds.9 mph78%30.09 "HgN/A
8:00 pm75 °FPassing clouds.12 mph83%30.08 "HgN/A
Weather by CustomWeather, © 2016

See weather overviewHow to use our weather pages